Regional Weather Roundup
Issued by NWS Charleston, SC

Current Version | Previous Version | Text Only | Print | Product List | Glossary On
Versions: 1 2 3 4 5 6 7 8 9 10 11 12 13 14 15 16 17 18 19 20 21 22 23 24 25 26 27 28 29 30 31 32 33 34 35 36 37 38 39 40 41 42 43 44 45 46 47 48 49 50
000
ASUS42 KCHS 302027
RWRCHS
REGIONAL WEATHER ROUNDUP
NATIONAL WEATHER SERVICE CHARLESTON SC
400 PM EDT THU JUL 30 2015

NOTE: "FAIR" INDICATES FEW OR NO CLOUDS BELOW 12,000 FEET WITH NO
SIGNIFICANT WEATHER AND/OR OBSTRUCTIONS TO VISIBILITY.

NOT ALL STATIONS ARE QUALITY CONTROLLED BY THE NATIONAL
WEATHER SERVICE. USE DATA WITH CAUTION...ESPECIALLY
DEWPOINT OBSERVATIONS.

SCZ027-030-031-034>040-042>050-302100-
...SOUTHEAST SOUTH CAROLINA...

CITY           SKY/WX    TMP DP  RH WIND       PRES   REMARKS
N CHARLESTON   MOSUNNY   94  72  48 VRB5      29.87F HX 102
WATERFRONT PRK   N/A     88  78  72 SE5       29.87F HX 101
MOUNT PLEASANT   N/A     90  77  66 S9        29.87F HX 102
JOHNS ISLAND   FAIR      90  79  70 S13       29.88F HX 105
PINOPOLIS      NOT AVBL
MONCKS CORNER  FAIR      97  68  38 NE6       29.86F HX 101
SUMMERVILLE    NOT AVBL
BEAUFORT MCAS  MOSUNNY   93  76  57 VRB7      29.88F HX 105
BEAUFORT ARPT  FAIR      90  79  70 S5        29.88F HX 105
HILTON HEAD IS SUNNY     88  73  62 SE7       29.91F HX  96
WALTERBORO     PTCLDY    97  64  34 CALM      29.87F HX  99
ALLENDALE      FAIR      97  68  38 VRB5      29.86F HX 101

...SOUTHERN MIDLANDS AND PEE DEE...

CITY           SKY/WX    TMP DP  RH WIND       PRES   REMARKS
GEORGETOWN     NOT AVBL
KINGSTREE      NOT AVBL
ORANGEBURG     MOSUNNY   98  69  38 NW3       29.87F HX 104
BARNWELL         N/A     97  73  46 W6        29.87F HX 107
AIKEN          CLOUDY    88  66  48 SW10      29.92F HX  90
MANNING        FAIR      95  63  34 SE6       29.85F HX  96
COLUMBIA       PTSUNNY   85  75  72 E6        29.88F HX  93
SUMTER         TSTM      84  72  65 NW23      29.87S
FLORENCE       SUNNY     98  69  38 CALM      29.86F HX 104
MYRTLE BEACH   MOSUNNY   91  73  55 S10       29.89F HX 100
N MYRTLE BEACH SUNNY     90  72  55 SE10      29.87F HX  97

$$

GAZ063-065-086>088-099>101-113>116-118-119-134>141-150-302100-
...SOUTHEAST GEORGIA...

CITY           SKY/WX    TMP DP  RH WIND       PRES   REMARKS
SAVANNAH ARPT  PTSUNNY   88  72  58 NW7       29.90F HX  94
HUNTER AAF     MOSUNNY   91  80  69 SE10G18   29.87F HX 108
FORT STEWART   PTSUNNY   94  70  45 SW6       29.87F HX 100
STATESBORO     MOSUNNY   95  74  51 W6        29.88F HX 106
SYLVANIA       CLEAR     97  71  42 CALM      29.88F HX 105
CLAXTON        MOCLDY    95  73  49 W8        29.88F HX 105

...CSRA...CENTRAL AND FAR SOUTHEAST GEORGIA...

CITY           SKY/WX    TMP DP  RH WIND       PRES   REMARKS
THOMSON        MOSUNNY   97  71  42 CALM      29.92F HX 105
AUGUSTA-BUSH   MOSUNNY   93  72  50 SE5       29.86F HX 101
AUGUSTA-DANIEL TSTM      81  74  79 VRB6      29.90F
SWAINSBORO     FAIR      97  73  46 S7        29.90F HX 107
VIDALIA        SUNNY     95  72  46 S6        29.89F HX 103
EASTMAN        MOCLDY    95  74  51 SW5       29.91F HX 106
HAZLEHURST     CLOUDY    92  77  60 S5        29.89F HX 105
ALMA           SUNNY     92  76  59 S7        29.91F HX 104
WAYCROSS       MOSUNNY   95  79  59 SW5       29.90F HX 112
JESUP          FAIR      93  77  59 CALM      29.89F HX 107
BAXLEY         FAIR      95  73  49 SW6       29.90F HX 105
BRUNSWICK      SUNNY     91  73  55 S3        29.90F HX 100
SAINT SIMONS   SUNNY     87  75  67 SE7       29.91F HX  96

$$

SCZ027-028-034-036>038-045-046-048>050-GAZ119-141-302100-
...LAKE AND SUPPLEMENTAL COASTAL OBSERVATIONS...

STATION/POSITION TIME  TEMP    WIND        PRES    WAVE   SWELL
                       AIR SEA DIR/SP/G            HT/PER HT/PER/DIR
                 (UTC) (F)     (DEG/KT/KT) (MB)    (FT/S) (FT/S/D)
UPR LAKE MARION  NOT AVBL
WINYAH BAY       1945   86     130/  8     1011.0F
LAKE MURRAY      1900   81      80/ 12/ 15 1012.9F
ACE BASIN NERRS  1900   91     180/  1     1013.0F
FORT PULASKI     2000   88 87  140/  6/  9 1013.0F
SAPELO ISLAND    2000   91     150/  8     1013.0F

$$

ANZ835-935-AMZ111-154-330-350-352-354-370-450-454-472-302100-
...C-MAN AND BUOY OBSERVATIONS...

STATION/POSITION TIME  TEMP    WIND        PRES    WAVE   SWELL
                       AIR SEA DIR/SP/G            HT/PER HT/PER/DIR
                 (UTC) (F)     (DEG/KT/KT) (MB)    (FT/S) (FT/S/D)
BUOY 41004       1950   82 85   10/  6/  8 1011.8F   3/ 8   2/ 8
BUOY 41008       1950   83 87  180/  4/  6 1013.4F   2/ 7   2/110/ 7
FOLLY BEACH CMAN 2000   85     180/  8/ 10 1012.2F
CAPERS NEARSHORE 1908   83     170/  8/ 10 1012.9F
FRIPP NEARSHORE  1900   85     180/ 10/ 12 1013.3F


STATION/POSITION TIME  TEMP    WIND        PRES    WAVE   SWELL
                       AIR SEA DIR/SP/G            HT/PER HT/PER/DIR
                 (UTC) (F)     (DEG/KT/KT) (MB)    (FT/S) (FT/S/D)
5E ST. MARYS GA  1921      86                N/A     2/ 7
FRYING PAN BUOY  1950   83 85   30/ 10/ 12 1012.1F   3/ 8   3/160/ 8
BUOY 41025       1950   84 86  170/ 17/ 21 1013.0F   4/ 5   2/150/ 8
CAPE LOOKOUT NC  2000   83     160/ 12/ 14 1012.2F
BUOY 41002       1950   81 81  190/ 21/ 27 1013.2F   9/ 8
BUOY 41010       1920   83 84  240/ 16/ 17 1014.2F
ST AUGUSTINE FL  2000   82 85   60/  8/  8 1013.8F


$$


USA.gov is the U.S. government's official web portal to all federal, state and local government web resources and services.